User: anonymous   Login
Location: Palomar Mountain Lodge
(33.3110°N, 116.8495°W)
Time: 23:19:04
(UTC-08:00)
Language:

Cosmos 1680 Rocket - Orbit

View from above orbital plane
View from above orbital plane
View from above satellite
View from above satellite

Ground track
Ground track

The orbit data is extracted from the following two-line orbital elements,

1 16012U 85079B   19048.62631911 -.00000014 +00000-0 +40459-5 0  9993
2 16012 074.0583 095.3916 0015584 211.4443 148.5780 14.36314929751237
Epoch (UTC): 17 February 2019 15:01:53
Eccentricity: 0.0015584
inclination: 74.0583°
perigee height: 759 km
apogee height: 782 km
right ascension of ascending node: 95.3916°
argument of perigee: 211.4443°
revolutions per day: 14.36314929
mean anomaly at epoch: 148.5780°
orbit number at epoch: 75123

The dashed part of the orbit path shows where the satellite is in the earth's shadow,  

DLR